PROBA-1 1 26958U 01049B 26063.51190131 .00003258 00000+0 21435-3 0 9997 2 26958 97.9621 68.4109 0057015 116.0024 244.7090 15.06988397327853 CUTE-1 (CO-55) 1 27844U 03031E 26063.01394075 .00000483 00000+0 22828-3 0 9997 2 27844 98.6778 72.8832 0010497 127.2783 232.9354 14.24260748176700 CUBESAT XI-IV (CO-57) 1 27848U 03031J 26062.94998598 .00000409 00000+0 19861-3 0 9993 2 27848 98.6808 72.6171 0010137 144.0340 216.1522 14.23556668176405 APRIZESAT 4 1 35684U 09041D 26063.19222317 .00001280 00000+0 15966-3 0 9994 2 35684 98.1497 136.4014 0042274 303.0599 56.6557 14.83696823895795 APRIZESAT 3 1 35686U 09041F 26063.35998457 .00003526 00000+0 30876-3 0 9991 2 35686 98.1888 211.6804 0063226 54.1522 306.5547 14.95876089900705 PROBA-2 1 36037U 09059B 26063.49293748 .00000481 00000+0 12273-3 0 9995 2 36037 98.2426 248.2987 0012133 241.5443 118.4532 14.54787237866300 APRIZESAT 5 1 37792U 11044E 26063.35008876 .00002196 00000+0 28562-3 0 9995 2 37792 98.2403 353.4752 0052115 341.8593 18.0757 14.80837962783275 APRIZESAT 6 1 37793U 11044F 26063.27527683 .00001410 00000+0 20603-3 0 9995 2 37793 98.2423 331.6159 0044484 62.3796 52.8397 14.76739097781669 PROBA-V 1 39159U 13021A 26063.46431298 .00000131 00000+0 75466-4 0 9994 2 39159 98.3498 47.2910 0005388 81.8512 278.3278 14.23572178666210 APRIZESAT 7 1 39416U 13066A 26063.42446034 .00002440 00000+0 24805-3 0 9994 2 39416 97.7590 18.2464 0035412 196.3756 163.6322 14.91263069665617 APRIZESAT 8 1 39425U 13066K 26063.40735732 .00002060 00000+0 22992-3 0 9991 2 39425 97.8111 12.4260 0044597 270.9540 88.6566 14.87406194664091 BUGSAT-1 (TITA) 1 40014U 14033E 26063.48477824 .00010271 00000+0 55704-3 0 9995 2 40014 98.0446 150.0140 0029027 175.6743 184.4744 15.14419143639986 SAUDISAT 4 1 40016U 14033G 26063.42245108 .00001289 00000+0 17674-3 0 9992 2 40016 97.7401 213.2851 0046039 55.5020 305.0527 14.79378916630581 APRIZESAT 9 1 40018U 14033J 26063.33786529 .00001584 00000+0 23998-3 0 9995 2 40018 97.8871 199.2125 0066471 176.3027 183.8687 14.74059728628110 APRIZESAT 10 1 40019U 14033K 26063.36036384 .00001201 00000+0 19628-3 0 9997 2 40019 97.9470 192.7696 0077761 248.1681 111.1241 14.70740981626848 TECHDEMOSAT-1 (TDS-1) 1 40076U 14037H 26063.49396962 .00017564 00000+0 10414-2 0 9991 2 40076 98.3767 45.5122 0004655 261.1075 98.9625 15.11437697632408 TECHNOSAT 1 42829U 17042E 26063.43921865 .00006515 00000+0 47073-3 0 9994 2 42829 97.4145 225.2099 0019704 92.1413 268.2070 15.04232602470952 FLYING LAPTOP 1 42831U 17042G 26063.50981160 .00005062 00000+0 40506-3 0 9999 2 42831 97.4250 223.4149 0018592 112.2518 248.0680 15.00476061470758 HAWK-A 1 43765U 18099H 26063.09227090 .00011349 00000+0 47580-3 0 9992 2 43765 97.4064 116.7331 0034467 296.1303 63.6389 15.23122659397096 HAWK-B 1 43794U 18099AN 26063.38684494 .00010343 00000+0 45713-3 0 9990 2 43794 97.4112 116.6486 0031680 312.9723 46.8857 15.21440272397094 HAWK-C 1 43799U 18099AT 26063.10018013 .00013265 00000+0 50199-3 0 9993 2 43799 97.4040 117.1589 0040629 297.9203 61.7924 15.26279019397878 SALSAT 1 46495U 20068K 26063.50003081 .00014646 00000+0 53709-3 0 9995 2 46495 97.8848 60.3287 0008688 318.7431 41.3149 15.28060764299367 HAWK-2C 1 47502U 21006CT 26063.12852110 .00010178 00000+0 31955-3 0 9996 2 47502 97.2423 109.5609 0006343 204.8100 155.2838 15.33187058283396 HAWK-2A 1 47505U 21006CW 26063.13209727 .00012905 00000+0 40419-3 0 9995 2 47505 97.2467 110.1797 0005887 208.0476 152.0450 15.33207120283395 HAWK-2B 1 47508U 21006CZ 26063.06360023 .00010416 00000+0 32703-3 0 9999 2 47508 97.2340 108.6207 0006500 206.5248 153.5663 15.33178040283388 HAWK-3B 1 48931U 21059BE 26063.48682311 .00053714 00000+0 63557-3 0 9990 2 48931 97.6710 250.9409 0005378 358.4277 1.6962 15.61097980261475 HAWK-3C 1 48948U 21059BX 26063.48659032 .00052362 00000+0 61963-3 0 9999 2 48948 97.6858 256.4294 0005886 358.7379 1.3862 15.61098342261478 HAWK-3A 1 48957U 21059CG 26063.48641695 .00054452 00000+0 64411-3 0 9998 2 48957 97.6795 253.7225 0005459 358.2876 1.8361 15.61102230261476 HAWK-5C 1 52754U 22057Y 26063.48625208 .00029205 00000+0 57361-3 0 9993 2 52754 97.6445 216.8237 0005633 92.9832 267.2062 15.47257094210135 HAWK-5B 1 52756U 22057AA 26063.48612184 .00028970 00000+0 56902-3 0 9992 2 52756 97.6447 215.1637 0005612 87.6570 272.5321 15.47257885210137 HAWK-5A 1 52757U 22057AB 26063.48584277 .00029846 00000+0 58606-3 0 9990 2 52757 97.6448 215.9975 0006012 89.8742 270.3196 15.47257184210130 HAWK-6B 1 55324U 23011A 26063.48895218 .00009868 00000+0 43330-3 0 9994 2 55324 40.5118 242.2591 0002870 349.9866 10.0886 15.21824001171889 HAWK-6C 1 55326U 23011C 26063.48835155 .00010121 00000+0 44419-3 0 9993 2 55326 40.4822 239.1416 0003260 336.2442 23.8216 15.21818020171890 HAWK-6A 1 55327U 23011D 26063.48836682 .00010174 00000+0 44645-3 0 9999 2 55327 40.4971 240.7431 0002923 334.4873 25.5791 15.21821650171894 HAWK-7A 1 56191U 23054P 26063.50941927 .00010541 00000+0 41047-3 0 9999 2 56191 97.2844 313.5095 0004466 61.1875 298.9812 15.26156237161052 HAWK-7B 1 56193U 23054R 26063.24704226 .00010211 00000+0 39827-3 0 9998 2 56193 97.2872 311.4775 0004794 66.8072 293.3671 15.26110631161018 HAWK-7C 1 56200U 23054Y 26063.24692449 .00010233 00000+0 39910-3 0 9997 2 56200 97.2849 312.2810 0003965 63.6711 296.4935 15.26113412161011